Showing default

IRIDIUM 172, 43927

Orbit data source: Space-Track

IRIDIUM 172, 43927 is a payload satellite owned by Iridium (US) in LEO that was launched on Fri, 11 Jan 2019 UTC via an FALCON 9 launch vehicle from the Air Force Western Test Range (AFWTR). Payloads include a variety of satellites, spacecraft, and rockets equipped with specific instruments for various scientific and technological missions. These include communications satellites like Starlink; space stations such as the ISS; scientific satellites like the Hubble; Earth observation satellites from companies like Planet Labs, Umbra, and HawkEye 360; GPS; miniature CubeSats for education and research; and military/defense satellites.

Loading next visibility...
IRIDIUM 172 details
Identifier
43927, 2019-002F
Orbit
LEO
Last TLE update12 hours ago
Origin
Flag of USIridium (US)
ManufacturerNGIS SSG Gilbert
MissionOperational Commercial Communications
Bus & MotorELITEBUS, Unknown motor
Mass860 kg wet, 700 kg dry
Launch date (UTC)
2019-01-11 (6 years ago)
Launch vehicle
FALCON 9
Launch site
Air Force Western Test Range (AFWTR)
Object type
Payload
Rocket body
Debris
Shape & HBRTrap Box + 2 Pan, 9.4 m
Radar Cross Section14.423 m², Large (>1 m²)

Expand to show TLE details & history

TLE from 12 hours ago
0 IRIDIUM 172
1 43927U 19002F   24361.12554262  .00000106  00000-0  30848-4 0  9994
2 43927  86.3976 218.3968 0002127  85.2957 274.8481 14.34218379311844
Epoch: 2024-12-26T03:00Z
Definitive object data (Epoch: 2024-12-26T03:00:46.882Z)
Latitude-0.00009°
Longitude78.09203°
Altitude780.588 km
Speed7.464 km/s
True Right ascension14h 33m 35s
True Declination0° 00' 00"
Sunlit
Object was in daylight at TLE epoch
Visualization TLE readout
Latitude-43.88194°
Longitude74.43879°
Altitude795.58 km
Speed7.454 km/s
Apparent Right ascension18h 19m 46s
Apparent Declination-86° 03' 18"
Sunlit
Object is in daylight
Visualization observer readout
Local Sidereal Time13:53:40
Azimuth175.391° S
Elevation-38.252°
Doppler factor1
Orbital elements
Apogee altitude776.151 km
Perigee altitude773.108 km
Semi-major axis7,152.767 km
Eccentricity0.0002127
Inclination86.3976°
RAAN218.3968°
Arg. of periapsis85.2957°
True anomaly274.82381°
Mean anomaly274.8481°
Eccentric anomaly274.83596°
Mean motion3.58783 °/min
BSTAR0.000030848
Orbital period100.34 mins
Loading maneuver chart data...
Loading historical data...
Loading historical data...
Loading historical data...
Loading historical data...
Loading historical data...
Loading historical data...
Loading historical data...

IRIDIUM 172 Visibility forecast

Observer location: undefined°, undefined

Span
Click to sort rows by Start time (UTC) header in descending order
Start Az.
Max El. time (UTC)
Max El. Az.
Max El.
End time (UTC)
End Az.
9 mins2024-12-26 14:50:48.588Z158.355° S2024-12-26 14:54:48.588Z101.697° ESE36.366°2024-12-26 14:59:48.588Z15.288° NNE
5 mins2024-12-26 16:33:48.588Z251.875° W2024-12-26 16:35:48.588Z278.319° WNW17.349°2024-12-26 16:38:48.588Z318.575° NNW
8 mins2024-12-27 03:02:48.588Z350.619° N2024-12-27 03:06:48.588Z230.114° WSW42.658°2024-12-27 03:10:48.588Z187.609° SSW
7 mins2024-12-27 14:18:48.588Z128.592° SE2024-12-27 14:21:48.588Z83.608° E23.898°2024-12-27 14:25:48.588Z29.429° NE
|